Regional Weather Roundup
Issued by NWS Little Rock, AR

Home | Current Version | Previous Version | Text Only | Print | Product List | Glossary On
Versions: 1 2 3 4 5 6 7 8 9 10 11 12 13 14 15 16 17 18 19 20 21 22 23 24 25 26 27 28 29 30 31 32 33 34 35 36 37 38 39 40 41 42 43 44 45 46 47 48 49 50
000
ASUS44 KLZK 181305
RWRLZK

WEATHER ROUNDUP FOR ARKANSAS
NATIONAL WEATHER SERVICE LITTLE ROCK AR
700 AM CST MON DEC 18 2017

NOTE: "FAIR" INDICATES FEW OR NO CLOUDS BELOW 12,000 FEET WITH NO
SIGNIFICANT WEATHER AND/OR OBSTRUCTIONS TO VISIBILITY.

ARZ001-003-010-029-181400-
NORTHWEST ARKANSAS

CITY           SKY/WX    TMP DP  RH WIND       PRES   REMARKS
FAYETTEVILLE   CLOUDY    44  42  93 SW3       30.15R
FORT SMITH     CLOUDY    47  46  97 W5        30.18R
HARRISON       CLOUDY    45  39  79 W8        30.13R
BENTONVILLE    CLOUDY    43  41  93 SW5       30.16R
ROGERS         CLOUDY    43  41  93 SW9       30.14R
SILOAM SPGS    CLOUDY    42  41  96 SW8       30.15R FOG
HIGHFILL       CLOUDY    43  42  97 SW6       30.14R
SPRINGDALE     CLOUDY    45  45 100 SW6       30.16R
$$

ARZ004-005-016-181400-
NORTH CENTRAL ARKANSAS

CITY           SKY/WX    TMP DP  RH WIND       PRES   REMARKS
BATESVILLE     CLOUDY    44  44 100 S5        30.17R
FLIPPIN        CLOUDY    47  40  76 W9G16     30.14R
MTN HOME       CLOUDY    46  40  79 W5        30.13R
$$

ARZ040-041-181400-
WEST CENTRAL ARKANSAS

CITY           SKY/WX    TMP DP  RH WIND       PRES   REMARKS
MENA           NOT AVBL
MOUNT IDA      CLOUDY    47  45  93 CALM      30.16R
$$

ARZ009-017-025-026-028-181400-
NORTHEAST ARKANSAS

CITY           SKY/WX    TMP DP  RH WIND       PRES   REMARKS
JONESBORO      CLOUDY    44  44 100 SW7       30.16R
NEWPORT        CLOUDY    44  43  96 SW10      30.19R
WALNUT RIDGE   CLOUDY    44  43  96 SW13      30.15R
BLYTHEVILLE    CLOUDY    45  45 100 SW9       30.17R FOG
$$

ARZ022-023-033-042-044-181400-
CENTRAL ARKANSAS

CITY           SKY/WX    TMP DP  RH WIND       PRES   REMARKS
LITTLE ROCK    CLOUDY    45  45 100 SW7       30.19S
N LITTLE ROCK    N/A     44  44  97 CALM      30.22R
JACKSONVILLE   CLOUDY    45  45  99 SW5       30.18R
SEARCY         CLOUDY    45  45 100 SW3       30.19R
HOT SPRINGS    CLOUDY    47  46  97 W3        30.19R
RUSSELLVILLE   CLOUDY    48  44  86 CALM      30.17R
CLINTON        CLOUDY    46  45  93 S3        30.17R FOG
$$

ARZ036-181400-
EAST ARKANSAS

CITY           SKY/WX    TMP DP  RH WIND       PRES   REMARKS
WEST MEMPHIS   CLOUDY    43  43 100 W3        30.19R FOG
$$

ARZ050-053-066-070-073-181400-
SOUTHWEST ARKANSAS

CITY           SKY/WX    TMP DP  RH WIND       PRES   REMARKS
ARKADELPHIA    CLOUDY    46  45  96 CALM      30.21R
CAMDEN         CLOUDY    46  43  87 CALM      30.21R FOG
TEXARKANA      CLOUDY    46  46 100 CALM      30.20R
EL DORADO      CLOUDY    45  45 100 CALM      30.22R FOG
DE QUEEN       CLOUDY    47  47 100 CALM      30.19R FOG
$$

ARZ056-057-069-181400-
SOUTHEAST ARKANSAS

CITY           SKY/WX    TMP DP  RH WIND       PRES   REMARKS
PINE BLUFF     CLOUDY    44  43  96 SW3       30.21R
STUTTGART      CLOUDY    44  44 100 SW6       30.20S
MONTICELLO     CLOUDY    43  42  97 CALM      30.21R FOG

$$





USA.gov is the U.S. government's official web portal to all federal, state and local government web resources and services.